Location: Buchberg
(46.9333°N, 15.8500°E)
Time: 04:34:30
(UTC+00:00)

Cosmos 2242 Rocket - Pass Details

Date: 14 July 2020
Orbit: 618 x 652 km, 82.5° (Epoch: 11 August)

Event Time Altitude Azimuth Distance (km) Brightness Sun altitude
Rises 00:03:14 0° 349° (N) 2,980 8.2 -20.1°
Reaches altitude 10° 00:05:30 10° 349° (N) 2,061 7.2 -20.0°
Maximum altitude 00:10:05 80° 263° (W) 660 3.5 -19.8°
Enters shadow 00:11:25 46° 183° (S) 868 3.8 -19.7°
